Zurück zum Katalog

STARLINK-34424

AktivKommunikationVLEO
NORAD 64295·PAYLOAD·🇺🇸 United States

Gestartet Jun 8, 2025 von Vandenberg Space Force Base

Loading…

Nächste Überflüge (nächste 24 Stunden)

TLE

AktuellSource: CelesTrak SupGP

Epoche: Sep 14, 2026, 20:42 UTC

1 64295C 25123E   26257.86298611  .00022509  00000+0  78315-3 0  2573
2 64295  70.0005  75.7557 0003293 273.8634 244.6274 15.29561601    12

Verfolge STARLINK-34424 in Echtzeit mit AllMySat

Download on the App Store